Location: *
(46.4000°N, 12.6667°E)
Time: 18:48:28
(UTC+00:00)

CZ-4C R/B - Pass Details

Date: 24 June 2021
Orbit: 606 x 1396 km, 63.4° (Epoch: 28 July)

Event Time Altitude Azimuth Distance (km) Brightness Sun altitude
Exits shadow 01:35:53 19° 208° (SSW) 1,649 3.1 -12.9°
Maximum altitude 01:39:25 75° 126° (SE) 800 2.1 -12.6°
Drops below altitude 10° 01:45:17 10° 41° (NE) 2,580 6.2 -12.0°
Sets 01:48:05 0° 40° (NE) 3,658 7.7 -11.7°
